EW5404 Weather Reports


Display with metric or nautical units.
time (UTC)temp
F
wind
direction
speed
MPH
gust
MPH
rain 1hr
in
rain 24hr
in
rain mn
in
humidity
%
barometer
mb
20260509001533 66 5 0.0 0.0 0.00 0.00 0.00 63 1015.2
20260509000031 67 82 0.0 3.0 0.00 0.00 0.00 64 1015.1
20260508234531 68 82 0.0 3.0 0.00 0.00 0.00 61 1014.9
20260508233030 68 91 0.0 3.0 0.00 0.00 0.00 61 1015.0
20260508231529 68 345 0.0 0.0 0.00 0.00 0.00 61 1015.0
20260508230029 68 345 0.0 0.0 0.00 0.00 0.00 62 1014.9
20260508224535 69 345 0.0 0.0 0.00 0.00 0.00 60 1014.9
20260508223041 69 345 0.0 3.0 0.00 0.00 0.00 58 1014.9
20260508221527 69 342 0.0 2.0 0.00 0.00 0.00 57 1014.9
20260508220030 70 343 0.0 3.0 0.00 0.00 0.00 57 1014.6
20260508214548 70 9 0.0 4.0 0.00 0.00 0.00 55 1014.7
20260508213025 70 337 0.0 3.0 0.00 0.00 0.00 57 1014.8
20260508211524 71 348 0.0 4.0 0.00 0.00 0.00 54 1014.9
20260508210025 71 345 0.0 6.0 0.00 0.00 0.00 50 1014.8
20260508204524 72 217 1.0 5.0 0.00 0.00 0.00 54 1014.9
20260508203023 71 335 0.0 2.0 0.00 0.00 0.00 53 1014.9
20260508201522 71 335 1.0 8.0 0.00 0.00 0.00 50 1015.0
20260508200023 71 327 0.0 9.0 0.00 0.00 0.00 48 1015.3
20260508194522 72 292 1.0 6.0 0.00 0.00 0.00 49 1015.5
20260508193011 72 325 0.0 8.0 0.00 0.00 0.00 47 1015.7
20260508191510 71 355 0.0 4.0 0.00 0.00 0.00 48 1015.9
20260508190024 71 308 1.0 7.0 0.00 0.00 0.00 50 1016.0
20260508184522 72 186 0.0 5.0 0.00 0.00 0.00 49 1016.4
20260508183016 72 42 0.0 7.0 0.00 0.00 0.00 48 1016.7
20260508181506 71 42 1.0 5.0 0.00 0.00 0.00 47 1016.8
20260508180004 71 228 0.0 4.0 0.00 0.00 0.00 47 1017.1
20260508174503 70 117 1.0 5.0 0.00 0.00 0.00 50 1017.1
20260508173001 71 186 3.0 5.0 0.00 0.00 0.00 50 1017.2
20260508171606 70 80 0.0 5.0 0.00 0.00 0.00 53 1017.4
20260508170107 68 306 0.0 3.0 0.00 0.00 0.00 52 1017.7
20260508164600 69 12 0.0 8.0 0.00 0.00 0.00 52 1017.9
20260508163054 69 153 0.0 5.0 0.00 0.00 0.00 51 1018.2
20260508161554 67 65 1.0 5.0 0.00 0.00 0.00 55 1018.3
20260508160048 67 42 0.0 5.0 0.00 0.00 0.00 53 1018.4
20260508154546 68 175 2.0 8.0 0.00 0.00 0.00 57 1018.8
20260508153049 66 111 0.0 0.0 0.00 0.00 0.00 56 1018.8
20260508151540 66 171 1.0 6.0 0.00 0.00 0.00 57 1018.9
20260508150038 65 60 0.0 3.0 0.00 0.00 0.00 60 1018.8
20260508144541 65 44 1.0 5.0 0.00 0.00 0.00 58 1018.9
20260508143035 64 144 1.0 5.0 0.00 0.00 0.00 60 1018.6
20260508141534 63 153 1.0 6.0 0.00 0.00 0.00 62 1018.8
20260508140029 63 111 1.0 6.0 0.00 0.00 0.00 64 1019.1
20260508134530 62 355 2.0 5.0 0.00 0.11 0.00 65 1019.1
20260508133025 61 174 0.0 7.0 0.00 0.11 0.00 68 1019.1
20260508131520 60 165 0.0 5.0 0.00 0.11 0.00 72 1019.0
20260508130028 59 53 1.0 5.0 0.00 0.11 0.00 75 1018.8
20260508124514 58 85 0.0 3.0 0.00 0.13 0.00 79 1018.6
20260508123015 57 267 0.0 2.0 0.00 0.13 0.00 80 1018.5
20260508121510 56 267 0.0 0.0 0.00 0.13 0.00 80 1018.4
20260508120007 54 267 0.0 0.0 0.00 0.13 0.00 84 1018.1
20260508114505 53 266 0.0 0.0 0.00 0.38 0.00 86 1018.2
20260508113004 53 266 0.0 0.0 0.00 0.38 0.00 84 1017.7
20260508111600 53 266 0.0 0.0 0.00 0.38 0.00 84 1017.4
20260508110108 54 266 0.0 0.0 0.00 0.38 0.00 82 1017.2
20260508104557 54 266 0.0 0.0 0.00 0.54 0.00 82 1016.9
20260508103102 54 254 0.0 0.0 0.00 0.54 0.00 79 1016.8
20260508101555 54 254 0.0 0.0 0.00 0.54 0.00 79 1016.5
20260508100050 54 254 0.0 0.0 0.00 0.54 0.00 80 1016.2
20260508094548 55 254 0.0 0.0 0.00 0.59 0.00 81 1015.8
20260508093048 55 254 0.0 0.0 0.00 0.59 0.00 79 1015.8
20260508091546 55 254 0.0 4.0 0.00 0.59 0.00 76 1015.8
20260508090050 55 294 0.0 0.0 0.00 0.59 0.00 78 1015.6
20260508084544 54 294 0.0 2.0 0.00 0.75 0.00 82 1015.7
20260508083048 53 294 0.0 1.0 0.00 0.75 0.00 85 1015.5
20260508081542 52 294 0.0 0.0 0.00 0.75 0.00 88 1015.5
20260508080041 52 294 0.0 0.0 0.00 0.75 0.00 90 1015.4
20260508074540 53 294 0.0 0.0 0.00 0.89 0.00 90 1015.5
20260508073042 53 294 0.0 0.0 0.00 0.89 0.00 89 1015.4
20260508071537 53 294 0.0 0.0 0.00 0.89 0.00 89 1015.4
20260508070036 53 294 0.0 0.0 0.00 0.89 0.00 88 1015.2
20260508064539 53 294 0.0 0.0 0.00 1.12 0.00 87 1015.0
20260508063046 54 294 0.0 0.0 0.00 1.12 0.00 87 1015.1
20260508061531 54 294 0.0 0.0 0.00 1.12 0.00 85 1015.1
20260508060028 54 294 0.0 0.0 0.00 1.12 0.00 84 1015.1
20260508054526 55 294 0.0 0.0 0.00 1.39 0.00 83 1015.2
20260508053023 56 294 0.0 0.0 0.00 1.39 0.00 80 1015.3
20260508051518 57 294 0.0 0.0 0.00 1.39 0.00 79 1015.1
20260508050018 57 294 0.0 0.0 0.00 1.39 0.00 78 1015.0
20260508044513 58 294 0.0 0.0 0.00 1.63 0.00 77 1014.9
20260508043012 58 294 0.0 0.0 0.00 1.63 0.00 76 1014.9
20260508041508 58 294 0.0 0.0 0.00 1.63 0.00 75 1014.7
20260508040005 59 294 0.0 0.0 0.00 1.63 1.63 75 1014.5
20260508034502 60 294 0.0 0.0 0.00 1.63 1.63 72 1014.8
20260508033002 60 294 0.0 0.0 0.00 1.63 1.63 70 1014.7
20260508031600 61 294 0.0 0.0 0.00 1.63 1.63 69 1014.7
20260508030059 61 294 0.0 0.0 0.00 1.63 1.63 68 1014.5
20260508024556 61 294 0.0 0.0 0.00 1.64 1.63 68 1014.5
20260508023055 62 294 0.0 5.0 0.00 1.64 1.63 68 1014.0
20260508021558 62 210 0.0 4.0 0.00 1.64 1.63 67 1013.8
20260508020055 63 227 0.0 6.0 0.00 1.64 1.63 68 1013.6
20260508014550 63 270 0.0 0.0 0.00 2.27 1.63 69 1013.4
20260508013055 63 270 0.0 3.0 0.00 2.27 1.63 69 1013.1
20260508011552 64 270 0.0 2.0 0.00 2.27 1.63 68 1012.7
20260508010046 65 270 0.0 0.0 0.00 2.27 1.63 68 1012.5
20260508004546 65 273 0.0 4.0 0.00 2.34 1.63 68 1012.0
20260508003045 67 275 0.0 3.0 0.00 2.34 1.63 66 1011.7